[[{"header":{"parameterUnit":"m.s-1","parameterCategory":1,"la1":30.2991,"la2":30.254,"lo1":-89.0895,"lo2":-89.0444,"dy":0.0017,"dx":0.0017,"nx":28,"ny":28,"refTime":"2025-07-09T03:00:00:Z","depth":0,"parameterNumber":2,"parameterNumberName":"U-component_of_WINDS"},"data":[0,0,0,0,0,0,0,0,0,0,0,0,0,0,0,0,0,0,0,0,0,0,0,0,0,0,0,0,0,0,0,0,0,0,0,0,0,0,0,0,0,0,0,0,0,0,0,0,0,0,0,0,0,0,0,0,0,0,2.5942,2.5942,0,2.6,2.6001,2.6002,2.5953,2.5951,2.5949,2.5948,2.6008,2.6011,2.6015,0,0,0,0,0,0,0,0,0,0,0,0,0,2.5788,2.5791,2.5942,2.5942,2.5943,2.6,2.6001,2.6002,2.5954,2.5951,2.5949,2.5947,2.6007,2.6011,2.6015,0,0,0,0,0,0,0,0,0,0,0,0,0,2.5851,2.5792,2.5942,2.5926,2.5925,2.6,2.6001,2.6002,2.5954,2.5951,2.5948,2.5945,2.6005,2.6011,2.6016,2.6109,0,0,2.6032,2.6034,0,0,0,0,0,0,0,0,2.5848,2.5857,2.5928,2.5927,2.5927,2.5966,2.5969,2.6038,2.5955,2.5943,2.5947,2.5944,2.5997,2.6002,2.602,2.6112,2.6115,2.6032,2.6035,2.6038,2.6039,0,0,0,0,0,0,0,2.5843,2.5854,2.5965,2.5929,2.5928,2.5916,2.5922,2.5982,2.5986,2.5944,2.5941,2.5948,2.5996,2.6015,2.6021,2.6115,2.6032,2.6037,2.604,2.6042,2.6285,2.6288,0,0,0,0,0,0,2.5841,2.5851,2.5963,2.5967,2.5879,2.5921,2.5928,2.5957,2.5986,2.5987,2.5951,2.5946,2.6008,2.6015,2.6023,2.6133,2.6038,2.6043,2.6046,2.6282,2.6286,2.6289,0,0,0,0,0,0,2.5837,2.5851,2.5961,2.5908,2.5921,2.5927,2.596,2.596,2.5979,2.5991,2.5991,2.597,2.6006,2.6016,2.6088,2.6134,2.6045,2.605,2.6278,2.6283,2.6288,2.6354,0,0,0,0,0,0,2.5833,2.585,2.5886,2.5909,2.5924,2.6025,2.5963,2.5963,2.5988,2.5982,2.6009,2.601,2.6004,2.608,2.6093,2.614,2.6054,2.6274,2.628,2.6286,2.6348,2.6361,2.6372,0,0,0,0,0,2.5828,2.5903,2.5888,2.5902,2.5969,2.6027,2.6036,2.6027,2.5992,2.6028,2.6035,2.6009,2.6128,2.6088,2.6102,2.6151,2.6271,2.6278,2.6286,2.6343,2.6358,2.6372,0,0,0,0,0,0,2.5885,2.5906,2.5889,2.5974,2.5999,2.6019,2.6064,2.6044,2.608,2.6073,2.6061,2.6067,2.6143,2.6154,2.611,2.6242,2.6193,2.6204,2.6232,2.6247,2.6259,2.6254,2.6058,0,0,0,0,0,2.5908,2.5954,2.5969,2.6042,2.6056,2.6058,2.6083,2.6074,2.61,2.611,2.6123,2.6149,2.6192,2.622,2.626,2.635,2.6354,2.6391,2.6403,2.6412,2.6421,2.6468,2.6484,2.6314,2.6314,2.6314,0,0,2.5955,2.5971,2.6001,2.6054,2.6073,2.612,2.6067,2.612,2.6155,2.6118,2.6186,2.6197,2.6225,2.6306,2.6342,2.6318,2.6469,2.6422,2.643,2.6433,2.6477,2.6493,2.6507,2.6319,2.6318,2.6317,0,0,2.6064,2.6082,2.6144,2.6164,2.6192,2.6193,2.6208,2.6231,2.6236,2.6304,2.6277,2.6319,2.6393,2.6414,2.6434,2.6551,2.6528,2.6564,2.6627,2.6672,2.6686,2.6698,2.6738,2.6752,2.6574,2.6574,2.6574,0,2.6118,2.6189,2.6179,2.6233,2.6257,2.6226,2.6288,2.6308,2.6348,2.6365,2.6337,2.6429,2.6446,2.653,2.6558,2.6576,2.6592,2.6561,2.6685,2.6696,2.6707,2.6745,2.6761,2.6578,2.6577,2.6577,2.6577,0,2.6254,2.6303,2.635,2.6389,2.6418,2.6477,2.6475,2.6505,2.6494,2.6497,2.6567,2.6586,2.6629,2.6648,2.6638,2.6731,2.6715,2.6687,2.6637,2.6728,2.6763,2.6778,2.6584,2.6582,2.6581,2.658,0,0,2.6401,2.6433,2.645,2.6467,2.6496,2.6534,2.6591,2.6632,2.6658,2.6687,2.6733,2.6797,2.677,2.6793,2.6785,2.6825,2.6914,2.6792,2.6792,2.6812,2.7016,2.7036,2.7053,2.69,2.6903,2.6905,2.7013,0,2.651,2.6608,2.66,2.6693,2.6738,2.6709,2.6758,2.6781,2.6786,2.6824,2.6829,2.6874,2.6836,2.685,2.6888,2.6895,2.6955,2.6888,2.6942,2.6944,2.6934,2.7072,2.7094,2.7195,2.7027,2.703,2.7031,0,2.6651,2.6684,2.6781,2.6802,2.6821,2.6865,2.6902,2.6939,2.6964,2.6965,2.6991,2.6975,2.7031,2.6981,2.7058,2.7013,2.7034,2.7041,2.7045,2.7048,2.6992,2.7078,2.7227,2.7242,2.7053,2.7052,2.705,0,2.6746,2.6815,2.6882,2.6897,2.6924,2.6956,2.6968,2.6991,2.7016,2.7048,2.7064,2.7103,2.7124,2.7154,2.7149,2.7113,2.7227,2.7177,2.7228,2.7228,2.7252,2.725,2.7406,2.7269,2.7269,2.7268,2.7268,0,2.6868,2.6928,2.6925,2.6965,2.7032,2.7022,2.7088,2.7097,2.7117,2.7158,2.7136,2.7175,2.7167,2.7207,2.7204,2.7267,2.7277,2.7278,2.7276,2.7279,2.7279,2.7292,2.7284,2.7272,2.7272,2.7271,2.727,0,2.6985,2.6985,2.7056,2.7075,2.7082,2.7129,2.7146,2.7184,2.7187,2.724,2.7252,2.7257,2.7301,2.73,2.7351,2.7349,2.7426,2.7417,2.7417,2.7415,2.7466,2.746,2.7634,2.7655,2.7506,2.7508,2.7509,0,2.7062,2.7107,2.7132,2.7158,2.7173,2.7215,2.7241,2.7233,2.726,2.7292,2.7326,2.7369,2.7402,2.7475,2.7483,2.7522,2.7512,2.7571,2.7518,2.7519,2.7511,2.7508,2.7511,2.758,2.7582,2.7583,2.7584,0,2.7198,2.7196,2.7233,2.7271,2.7302,2.7331,2.7357,2.738,2.7375,2.7407,2.7452,2.7478,2.753,2.7572,2.761,2.7622,2.7602,2.7601,2.7615,2.7617,2.7615,2.7615,2.7444,2.7597,2.7596,2.7595,2.7594,2.7594,2.7296,2.7335,2.7358,2.74,2.7419,2.7444,2.7481,2.7488,2.7526,2.7567,2.7561,2.7611,2.7634,2.7682,2.7698,2.7737,2.7716,2.7736,2.7741,2.7746,2.775,2.761,2.7744,2.7743,2.7743,2.7743,2.7742,0,2.743,2.7443,2.7482,2.752,2.7553,2.7532,2.756,2.7589,2.7633,2.7657,2.769,2.7742,2.7783,2.7793,2.7833,2.7862,2.7853,2.7872,2.7869,2.7872,2.7768,2.7751,2.7878,2.7878,2.7878,2.7878,2.7878,2.7878,2.7503,2.7566,2.7567,2.7639,2.7652,2.7701,2.7719,2.7742,2.776,2.7819,2.7853,2.7859,2.7877,2.7918,2.7954,2.7956,2.797,2.7992,2.7991,2.7893,2.7879,2.7866,2.7851,2.7996,2.7996,2.8091,2.8092,2.8093]},{"header":{"parameterUnit":"m.s-1","parameterCategory":1,"la1":30.2991,"la2":30.254,"lo1":-89.0895,"lo2":-89.0444,"dy":0.0017,"dx":0.0017,"nx":28,"ny":28,"refTime":"2025-07-09T03:00:00:Z","depth":0,"parameterNumber":3,"parameterNumberName":"V-component_of_WINDS"},"data":[0,0,0,0,0,0,0,0,0,0,0,0,0,0,0,0,0,0,0,0,0,0,0,0,0,0,0,0,0,0,0,0,0,0,0,0,0,0,0,0,0,0,0,0,0,0,0,0,0,0,0,0,0,0,0,0,0,0,2.6571,2.657,0,2.6551,2.6551,2.6551,2.6512,2.6512,2.6511,2.651,2.6491,2.6491,2.6491,0,0,0,0,0,0,0,0,0,0,0,0,0,2.6574,2.6574,2.6571,2.657,2.657,2.6551,2.6551,2.6551,2.6513,2.6512,2.6511,2.651,2.6491,2.6491,2.6491,0,0,0,0,0,0,0,0,0,0,0,0,0,2.6566,2.6574,2.6571,2.6549,2.6547,2.6551,2.6551,2.6551,2.6513,2.6512,2.6511,2.6509,2.649,2.6491,2.6491,2.6516,0,0,2.6492,2.6492,0,0,0,0,0,0,0,0,2.6566,2.6565,2.6552,2.655,2.6548,2.6533,2.6545,2.6539,2.6513,2.6526,2.651,2.6509,2.6506,2.6505,2.6504,2.6515,2.6514,2.6492,2.6492,2.6492,2.6492,0,0,0,0,0,0,0,2.6567,2.6566,2.6563,2.6552,2.6549,2.654,2.6537,2.6544,2.6522,2.6524,2.6522,2.652,2.6504,2.6503,2.6503,2.6513,2.6492,2.6492,2.6492,2.6492,2.6543,2.6544,0,0,0,0,0,0,2.6571,2.6567,2.6564,2.6562,2.6554,2.6541,2.6538,2.6539,2.6522,2.6518,2.6521,2.6518,2.6503,2.6502,2.6502,2.6528,2.6492,2.6492,2.6493,2.6541,2.6543,2.6544,0,0,0,0,0,0,2.6571,2.6571,2.6564,2.6564,2.6562,2.6542,2.6543,2.6539,2.6538,2.6519,2.6515,2.6524,2.6502,2.6502,2.6512,2.6527,2.6493,2.6493,2.654,2.6542,2.6543,2.6583,0,0,0,0,0,0,2.6571,2.6571,2.658,2.6564,2.6562,2.6575,2.6544,2.654,2.6539,2.6535,2.6521,2.6518,2.6502,2.6512,2.6512,2.6527,2.6493,2.6539,2.6541,2.6543,2.658,2.6585,2.659,0,0,0,0,0,2.6571,2.6592,2.6581,2.6581,2.6574,2.6576,2.6575,2.6556,2.654,2.6549,2.6537,2.6518,2.6526,2.6513,2.6514,2.6529,2.6537,2.654,2.6543,2.6577,2.6584,2.659,0,0,0,0,0,0,2.661,2.659,2.6577,2.6593,2.6587,2.657,2.658,2.6564,2.6562,2.6558,2.6535,2.6532,2.6546,2.6538,2.6525,2.6551,2.6529,2.6531,2.6555,2.6561,2.6566,2.6568,2.6493,0,0,0,0,0,2.6621,2.6625,2.6607,2.6623,2.662,2.6601,2.6601,2.6587,2.6579,2.6576,2.6565,2.6558,2.6559,2.656,2.656,2.6579,2.6575,2.6589,2.6595,2.6599,2.6601,2.661,2.6616,2.6553,2.6553,2.6553,0,0,2.6643,2.6632,2.6636,2.663,2.6624,2.6628,2.6599,2.6605,2.6607,2.6577,2.6586,2.6578,2.6569,2.6583,2.6589,2.6578,2.6618,2.6602,2.6606,2.6606,2.6613,2.6619,2.6625,2.6554,2.6554,2.6554,0,0,2.6684,2.6677,2.6689,2.6683,2.6673,2.666,2.6663,2.6648,2.6641,2.665,2.6627,2.663,2.6632,2.6626,2.6624,2.6663,2.6645,2.6663,2.669,2.6699,2.6704,2.6708,2.6721,2.6726,2.6666,2.6666,2.6666,0,2.6713,2.6718,2.6698,2.6705,2.6702,2.6675,2.6687,2.6682,2.6673,2.6672,2.6659,2.6661,2.6653,2.6665,2.6675,2.6674,2.6676,2.6664,2.6705,2.6709,2.6713,2.6725,2.673,2.6668,2.6668,2.6668,2.6668,0,2.6753,2.6757,2.6768,2.6759,2.6758,2.6768,2.6749,2.675,2.6736,2.6725,2.6734,2.6723,2.672,2.6722,2.6708,2.6732,2.6725,2.6709,2.6686,2.6721,2.6732,2.6737,2.6671,2.6671,2.667,2.6669,0,0,2.6818,2.6797,2.6802,2.6797,2.6784,2.6787,2.6795,2.6791,2.6793,2.6788,2.6793,2.6795,2.678,2.6777,2.6763,2.6771,2.6801,2.6753,2.6753,2.6762,2.6826,2.6837,2.6843,2.679,2.6791,2.6791,2.6826,0,2.6855,2.6868,2.685,2.6866,2.6869,2.6844,2.6851,2.6843,2.6833,2.6834,2.6822,2.6823,2.6804,2.6802,2.6808,2.6796,2.6813,2.6793,2.6794,2.6794,2.6796,2.6849,2.6861,2.6894,2.683,2.6831,2.6832,0,2.6901,2.6897,2.6914,2.6899,2.69,2.6906,2.6901,2.6903,2.6894,2.6886,2.6882,2.6865,2.6872,2.685,2.6859,2.6846,2.6845,2.6839,2.684,2.6838,2.6815,2.6848,2.6905,2.691,2.6838,2.6838,2.6837,0,2.6945,2.6944,2.6954,2.6951,2.6934,2.694,2.6933,2.6923,2.6922,2.6918,2.6917,2.6914,2.6912,2.691,2.6892,2.6878,2.6902,2.688,2.6895,2.6895,2.69,2.69,2.6957,2.6902,2.6902,2.6902,2.6902,0,2.6988,2.6999,2.6973,2.6979,2.6991,2.697,2.6982,2.6972,2.6964,2.6967,2.6945,2.6949,2.6926,2.6927,2.6914,2.6922,2.6922,2.6915,2.6911,2.6916,2.6917,2.6915,2.6912,2.6903,2.6903,2.6903,2.6902,0,2.7039,2.7022,2.7031,2.7015,2.7011,2.702,2.7006,2.701,2.6998,2.7003,2.7003,2.6984,2.6984,2.6967,2.6964,2.6955,2.6969,2.6961,2.6972,2.6969,2.6985,2.6983,2.7042,2.7048,2.699,2.699,2.6991,0,2.7067,2.7074,2.7059,2.706,2.7054,2.7056,2.7054,2.7034,2.7034,2.7024,2.703,2.7028,2.7026,2.7027,2.7013,2.7011,2.7002,2.7023,2.7002,2.7006,2.7001,2.7001,2.7001,2.7027,2.7028,2.7028,2.7029,0,2.7118,2.7109,2.7108,2.7104,2.7103,2.7099,2.7094,2.7096,2.7074,2.7074,2.7074,2.7072,2.7069,2.7068,2.7062,2.7055,2.7038,2.7036,2.7039,2.7044,2.7049,2.7046,2.6983,2.7034,2.7034,2.7033,2.7033,2.7033,2.7157,2.7162,2.7152,2.7151,2.7145,2.7141,2.7144,2.7133,2.7132,2.7128,2.7116,2.7118,2.7109,2.71,2.7094,2.7095,2.7085,2.709,2.7091,2.7092,2.7095,2.705,2.7094,2.7094,2.7094,2.7094,2.7094,0,2.7205,2.7198,2.7198,2.7191,2.719,2.7175,2.7168,2.7169,2.717,2.7163,2.7161,2.7161,2.716,2.7146,2.7143,2.7146,2.7138,2.7146,2.7145,2.7143,2.7105,2.7102,2.7152,2.7152,2.7152,2.7152,2.7152,2.7152,2.723,2.7238,2.7229,2.7234,2.7226,2.7227,2.7225,2.722,2.7214,2.7215,2.7214,2.7205,2.7195,2.7191,2.7189,2.7185,2.7184,2.7194,2.7187,2.7152,2.7146,2.7141,2.7138,2.7194,2.7195,2.7225,2.7226,2.7226]}]]